Radiation Dose at Monitoring Post of Fukushima Daini Nuclear Power Station
Date,Time,MP-1(microSv/h),MP-2(microSv/h),MP-3(microSv/h),MP-4(microSv/h),MP-5(microSv/h),MP-6(microSv/h),MP-7(microSv/h),Wind Direction,Wind Velocity(m/s),Rain
2017/07/07,00:00,0.352,0.220,0.360,0.339,0.325,0.178,0.106,west,3.6,No
2017/07/07,00:10,0.352,0.220,0.364,0.337,0.326,0.178,0.105,west,3.1,No
2017/07/07,00:20,0.353,0.219,0.362,0.338,0.324,0.178,0.106,west,2.4,No
2017/07/07,00:30,0.350,0.220,0.361,0.337,0.326,0.179,0.105,west-northwest,1.4,No
2017/07/07,00:40,0.353,0.220,0.364,0.338,0.326,0.177,0.106,north-northeast,0.7,No
2017/07/07,00:50,0.351,0.220,0.361,0.341,0.323,0.178,0.106,east-northeast,0.7,No
2017/07/07,01:00,0.353,0.220,0.364,0.336,0.328,0.178,0.105,-,CALM,No
2017/07/07,01:10,0.355,0.220,0.361,0.340,0.325,0.177,0.106,-,CALM,No
2017/07/07,01:20,0.349,0.219,0.362,0.338,0.324,0.178,0.104,-,CALM,No
2017/07/07,01:30,0.354,0.221,0.364,0.338,0.327,0.177,0.104,southwest,0.5,No
2017/07/07,01:40,0.350,0.219,0.360,0.341,0.323,0.178,0.105,west,2.5,No
2017/07/07,01:50,0.353,0.219,0.364,0.336,0.326,0.177,0.106,west,2.8,No
2017/07/07,02:00,0.352,0.220,0.361,0.340,0.326,0.178,0.106,west,2.2,No
2017/07/07,02:10,0.351,0.219,0.363,0.337,0.323,0.177,0.105,west-southwest,2.7,No
2017/07/07,02:20,0.354,0.220,0.362,0.339,0.325,0.178,0.105,west,2.5,No
2017/07/07,02:30,0.350,0.220,0.362,0.339,0.324,0.178,0.105,west,1.1,No
2017/07/07,02:40,0.355,0.221,0.364,0.336,0.324,0.178,0.105,west-southwest,1.0,No
2017/07/07,02:50,0.354,0.218,0.361,0.341,0.328,0.179,0.105,south,1.2,No
2017/07/07,03:00,0.351,0.221,0.364,0.337,0.324,0.178,0.105,south,1.2,No
2017/07/07,03:10,0.354,0.219,0.361,0.338,0.328,0.178,0.105,south-southwest,0.8,No
2017/07/07,03:20,0.352,0.221,0.363,0.340,0.325,0.179,0.105,-,CALM,No
2017/07/07,03:30,0.355,0.218,0.361,0.336,0.324,0.178,0.106,-,CALM,No
2017/07/07,03:40,0.351,0.220,0.360,0.340,0.327,0.178,0.105,-,CALM,No
2017/07/07,03:50,0.353,0.219,0.364,0.338,0.324,0.178,0.105,-,CALM,No
2017/07/07,04:00,0.353,0.221,0.361,0.339,0.327,0.178,0.105,northeast,0.7,No
2017/07/07,04:10,0.353,0.219,0.363,0.339,0.327,0.178,0.105,northeast,0.6,No
2017/07/07,04:20,0.354,0.219,0.362,0.336,0.323,0.178,0.106,north-northeast,0.7,No
2017/07/07,04:30,0.351,0.220,0.363,0.338,0.328,0.178,0.105,north-northeast,0.9,No
2017/07/07,04:40,0.354,0.220,0.364,0.338,0.324,0.178,0.105,northeast,2.5,No
2017/07/07,04:50,0.353,0.220,0.362,0.339,0.326,0.179,0.106,northeast,2.3,No
2017/07/07,05:00,0.353,0.218,0.363,0.337,0.328,0.178,0.106,northeast,2.3,No
2017/07/07,05:10,0.355,0.220,0.361,0.339,0.323,0.178,0.107,north-northeast,1.5,No
2017/07/07,05:20,0.351,0.219,0.364,0.337,0.329,0.178,0.105,northeast,1.4,No
2017/07/07,05:30,0.354,0.221,0.360,0.338,0.325,0.178,0.106,northeast,0.7,No
2017/07/07,05:40,0.351,0.219,0.361,0.339,0.323,0.179,0.106,-,CALM,No
2017/07/07,05:50,0.354,0.218,0.364,0.337,0.326,0.177,0.105,-,CALM,No
2017/07/07,06:00,0.352,0.221,0.361,0.338,0.325,0.179,0.106,northeast,0.8,No
2017/07/07,06:10,0.350,0.220,0.364,0.336,0.322,0.178,0.106,northeast,0.5,No
2017/07/07,06:20,0.356,0.219,0.362,0.337,0.322,0.178,0.106,-,CALM,No
2017/07/07,06:30,0.354,0.218,0.362,0.339,0.325,0.178,0.105,-,CALM,No
2017/07/07,06:40,0.350,0.216,0.364,0.335,0.327,0.177,0.104,northeast,0.8,No
2017/07/07,06:50,0.355,0.217,0.359,0.339,0.326,0.178,0.104,-,CALM,No
2017/07/07,07:00,0.354,0.218,0.363,0.339,0.324,0.178,0.107,-,CALM,No
2017/07/07,07:10,0.349,0.217,0.363,0.336,0.323,0.177,0.106,-,CALM,No
2017/07/07,07:20,0.354,0.218,0.361,0.335,0.326,0.179,0.107,-,CALM,No
2017/07/07,07:30,0.356,0.217,0.360,0.334,0.327,0.178,0.107,northeast,0.9,No
2017/07/07,07:40,0.352,0.218,0.358,0.334,0.324,0.177,0.105,north-northeast,0.6,No
2017/07/07,07:50,0.349,0.218,0.359,0.334,0.323,0.179,0.105,-,CALM,No
2017/07/07,08:00,0.348,0.219,0.359,0.335,0.321,0.178,0.104,-,CALM,No
2017/07/07,08:10,0.348,0.219,0.359,0.334,0.323,0.177,0.104,south-southeast,1.5,No
2017/07/07,08:20,0.354,0.219,0.359,0.335,0.323,0.178,0.104,south-southeast,2.7,No
2017/07/07,08:30,0.354,0.220,0.359,0.335,0.322,0.177,0.105,south,3.2,No
2017/07/07,08:40,0.352,0.218,0.360,0.337,0.323,0.179,0.103,south-southeast,2.9,No
2017/07/07,08:50,0.351,0.219,0.357,0.336,0.324,0.178,0.104,south-southeast,2.8,No
2017/07/07,09:00,0.351,0.218,0.359,0.336,0.325,0.178,0.105,southeast,2.5,No
2017/07/07,09:10,0.350,0.219,0.358,0.337,0.325,0.178,0.105,southeast,2.0,No
2017/07/07,09:20,0.350,0.220,0.360,0.338,0.325,0.178,0.105,southeast,1.7,No
2017/07/07,09:30,0.350,0.220,0.359,0.338,0.324,0.179,0.105,southeast,2.4,No
2017/07/07,09:40,0.351,0.219,0.363,0.336,0.325,0.179,0.104,southeast,2.2,No
2017/07/07,09:50,0.350,0.220,0.366,0.339,0.324,0.179,0.105,southeast,2.2,No
2017/07/07,10:00,0.351,0.221,0.365,0.338,0.325,0.178,0.106,southeast,1.9,No
2017/07/07,10:10,0.349,0.220,0.362,0.339,0.326,0.178,0.107,east-southeast,1.4,No
2017/07/07,10:20,0.352,0.219,0.360,0.339,0.325,0.178,0.108,east-southeast,2.4,No
2017/07/07,10:30,0.353,0.218,0.360,0.337,0.324,0.179,0.106,southeast,2.5,No
2017/07/07,10:40,0.352,0.219,0.360,0.338,0.324,0.179,0.106,southeast,2.7,No
2017/07/07,10:50,0.353,0.220,0.360,0.338,0.323,0.178,0.108,east-southeast,1.8,No
2017/07/07,11:00,0.353,0.219,0.360,0.338,0.326,0.178,0.107,southeast,2.5,No
2017/07/07,11:10,0.354,0.220,0.362,0.339,0.325,0.178,0.106,southeast,2.2,No
2017/07/07,11:20,0.353,0.220,0.363,0.340,0.325,0.178,0.107,southeast,2.8,No
2017/07/07,11:30,0.353,0.221,0.363,0.339,0.325,0.178,0.107,southeast,2.5,No
2017/07/07,11:40,0.353,0.221,0.362,0.339,0.325,0.178,0.107,southeast,2.5,No
2017/07/07,11:50,0.353,0.221,0.361,0.339,0.324,0.179,0.107,southeast,2.9,No
2017/07/07,12:00,0.355,0.220,0.362,0.340,0.326,0.179,0.109,east-southeast,2.7,No
2017/07/07,12:10,0.353,0.220,0.364,0.339,0.325,0.178,0.108,southeast,3.2,No
2017/07/07,12:20,0.354,0.221,0.363,0.338,0.326,0.179,0.108,southeast,2.3,No
2017/07/07,12:30,0.353,0.221,0.363,0.338,0.325,0.178,0.108,east-southeast,2.4,No
2017/07/07,12:40,0.353,0.220,0.362,0.338,0.325,0.180,0.108,east-southeast,2.2,No
2017/07/07,12:50,0.352,0.220,0.362,0.339,0.326,0.178,0.108,southeast,2.9,No
2017/07/07,13:00,0.354,0.221,0.362,0.339,0.327,0.179,0.108,south-southeast,4.3,No
2017/07/07,13:10,0.355,0.221,0.364,0.341,0.325,0.180,0.109,south-southeast,3.6,No
2017/07/07,13:20,0.354,0.221,0.363,0.339,0.325,0.180,0.107,south,3.7,No
2017/07/07,13:30,0.354,0.221,0.362,0.340,0.326,0.179,0.106,south,4.2,No
2017/07/07,13:40,0.353,0.219,0.363,0.340,0.327,0.179,0.106,south-southeast,3.4,No
2017/07/07,13:50,0.353,0.221,0.362,0.339,0.326,0.178,0.106,south-southeast,2.7,No
2017/07/07,14:00,0.351,0.220,0.363,0.342,0.325,0.181,0.107,south-southeast,1.6,No
2017/07/07,14:10,0.353,0.219,0.363,0.341,0.326,0.178,0.107,south,4.2,No
2017/07/07,14:20,0.354,0.219,0.364,0.340,0.325,0.178,0.107,south-southeast,4.2,No
2017/07/07,14:30,0.353,0.220,0.363,0.340,0.325,0.177,0.108,south,4.4,No
2017/07/07,14:40,0.354,0.220,0.365,0.341,0.325,0.178,0.107,south,3.9,No
2017/07/07,14:50,0.354,0.219,0.364,0.339,0.326,0.179,0.107,south-southeast,2.5,No
2017/07/07,15:00,0.354,0.219,0.364,0.337,0.325,0.178,0.107,south,3.9,No
2017/07/07,15:10,0.353,0.218,0.362,0.338,0.326,0.178,0.107,south,4.6,No
2017/07/07,15:20,0.352,0.220,0.362,0.338,0.326,0.179,0.104,south,3.6,No
2017/07/07,15:30,0.351,0.220,0.364,0.337,0.325,0.179,0.104,south,4.0,No
2017/07/07,15:40,0.351,0.221,0.363,0.336,0.326,0.177,0.103,south,4.7,No
2017/07/07,15:50,0.351,0.219,0.362,0.339,0.327,0.178,0.103,south,5.2,No
2017/07/07,16:00,0.351,0.219,0.363,0.343,0.326,0.178,0.106,south,5.2,No
2017/07/07,16:10,0.352,0.219,0.362,0.340,0.327,0.178,0.104,south,6.0,No
2017/07/07,16:20,0.354,0.219,0.361,0.339,0.325,0.179,0.105,south,7.3,No
2017/07/07,16:30,0.358,0.219,0.362,0.337,0.326,0.178,0.105,south-southwest,8.0,No
2017/07/07,16:40,0.356,0.219,0.360,0.338,0.325,0.178,0.105,south-southwest,7.5,No
2017/07/07,16:50,0.354,0.222,0.362,0.343,0.325,0.177,0.105,south-southwest,7.5,No
2017/07/07,17:00,0.350,0.221,0.366,0.342,0.325,0.177,0.106,south,8.0,No
2017/07/07,17:10,0.350,0.220,0.364,0.340,0.325,0.177,0.106,south,8.1,No
2017/07/07,17:20,0.357,0.219,0.362,0.339,0.324,0.178,0.105,south,9.5,No
2017/07/07,17:30,0.356,0.221,0.361,0.343,0.325,0.179,0.106,south,8.4,No
2017/07/07,17:40,0.353,0.221,0.368,0.343,0.324,0.178,0.107,south,8.6,No
2017/07/07,17:50,0.351,0.220,0.365,0.340,0.323,0.178,0.106,south,7.5,No
2017/07/07,18:00,0.357,0.220,0.361,0.341,0.323,0.178,0.107,south,7.3,No
2017/07/07,18:10,0.357,0.221,0.364,0.342,0.323,0.179,0.106,south,5.0,No
2017/07/07,18:20,0.353,0.219,0.367,0.341,0.327,0.176,0.106,south-southwest,5.4,No
2017/07/07,18:30,0.353,0.221,0.365,0.339,0.328,0.179,0.107,south-southwest,6.4,No
2017/07/07,18:40,0.357,0.221,0.362,0.343,0.325,0.178,0.107,south-southwest,6.2,No
2017/07/07,18:50,0.354,0.219,0.367,0.340,0.325,0.177,0.105,south-southwest,5.7,No
2017/07/07,19:00,0.352,0.220,0.364,0.337,0.329,0.178,0.106,south,6.9,No
2017/07/07,19:10,0.356,0.220,0.363,0.344,0.327,0.179,0.106,south-southwest,7.0,No
2017/07/07,19:20,0.354,0.219,0.367,0.341,0.324,0.177,0.105,south-southwest,6.2,No
2017/07/07,19:30,0.352,0.221,0.367,0.339,0.327,0.179,0.107,south-southwest,5.8,No
2017/07/07,19:40,0.356,0.220,0.362,0.342,0.328,0.179,0.106,south-southwest,4.6,No
2017/07/07,19:50,0.355,0.220,0.366,0.342,0.323,0.178,0.107,south-southwest,6.1,No
2017/07/07,20:00,0.351,0.221,0.367,0.338,0.325,0.178,0.107,south-southwest,6.9,No
2017/07/07,20:10,0.356,0.220,0.362,0.340,0.328,0.178,0.107,south-southwest,6.2,No
2017/07/07,20:20,0.354,0.220,0.364,0.343,0.325,0.177,0.105,south-southwest,6.4,No
2017/07/07,20:30,0.351,0.221,0.366,0.338,0.324,0.178,0.108,south-southwest,6.4,No
2017/07/07,20:40,0.356,0.219,0.362,0.340,0.328,0.178,0.106,south-southwest,5.1,No
2017/07/07,20:50,0.355,0.221,0.365,0.344,0.325,0.178,0.106,south-southwest,4.8,No
2017/07/07,21:00,0.354,0.220,0.368,0.341,0.325,0.178,0.107,southwest,3.8,No
2017/07/07,21:10,0.357,0.221,0.363,0.340,0.327,0.178,0.107,southwest,3.1,No
2017/07/07,21:20,0.355,0.221,0.364,0.343,0.326,0.179,0.106,west-southwest,2.6,No
2017/07/07,21:30,0.352,0.220,0.368,0.342,0.326,0.180,0.108,west-southwest,2.4,No
2017/07/07,21:40,0.358,0.222,0.363,0.340,0.331,0.178,0.106,west,1.4,No
2017/07/07,21:50,0.354,0.222,0.365,0.344,0.326,0.180,0.108,west-northwest,1.4,No
2017/07/07,22:00,0.351,0.220,0.367,0.341,0.325,0.180,0.107,west-southwest,0.9,No
2017/07/07,22:10,0.358,0.222,0.365,0.340,0.330,0.179,0.106,-,CALM,No
2017/07/07,22:20,0.356,0.221,0.367,0.346,0.327,0.180,0.107,west,0.7,No
2017/07/07,22:30,0.355,0.221,0.367,0.341,0.326,0.179,0.108,-,CALM,No
2017/07/07,22:40,0.358,0.222,0.363,0.341,0.329,0.179,0.107,northwest,0.7,No
2017/07/07,22:50,0.354,0.221,0.368,0.344,0.328,0.180,0.108,-,CALM,No
2017/07/07,23:00,0.355,0.224,0.367,0.340,0.326,0.179,0.108,north,0.7,No
2017/07/07,23:10,0.357,0.222,0.365,0.341,0.330,0.180,0.106,-,CALM,No
2017/07/07,23:20,0.353,0.222,0.368,0.344,0.327,0.180,0.108,-,CALM,No
2017/07/07,23:30,0.356,0.224,0.365,0.341,0.326,0.178,0.107,-,CALM,No
2017/07/07,23:40,0.358,0.221,0.365,0.342,0.328,0.181,0.108,-,CALM,No
2017/07/07,23:50,0.354,0.223,0.368,0.343,0.327,0.180,0.109,-,CALM,No
